Regional Weather Roundup
Issued by NWS

Home | Current Version | Previous Version | Text Only | Print | Product List | Glossary Off
Versions: 1 2 3 4 5 6 7 8 9 10 11 12 13 14 15 16 17 18 19 20 21 22 23 24 25 26 27 28 29 30 31 32 33 34 35 36 37 38 39 40 41 42 43 44 45 46 47 48 49 50

000
ASUS45 KBOU 302007
RWRCO

WEATHER ROUNDUP FOR COLORADO
NATIONAL WEATHER SERVICE DENVER/BOULDER CO
200 PM MDT SUN APR 30 2017

NOTE: "FAIR" INDICATES FEW OR NO CLOUDS BELOW 12000 FEET WITH NO
SIGNIFICANT WEATHER AND/OR OBSTRUCTIONS TO VISIBILITY.

COZ001>005-013-030-031-302100-
...NORTHWEST COLORADO...

CITY           SKY/WX    TMP DP  RH WIND       PRES   REMARKS
CRAIG          CLOUDY    51  22  31 E9        30.07F
HAYDEN         PTSUNNY   48  23  37 W14G21    30.07F
MEEKER         CLOUDY    48  23  37 CALM      30.09F
MOUNT WERNER   NOT AVBL
STEAMBOAT SPGS CLOUDY    45  23  42 S5        30.07F
WALDEN           N/A     46  14  27 NW15G25   30.04F
$$

COZ006>008-011-302100-
...WEST CENTRAL VALLEYS...

CITY           SKY/WX    TMP DP  RH WIND       PRES   REMARKS
GRAND JUNCTION FAIR      58  20  22 VRB3      30.07F
MONTROSE       FAIR      51  17  26 S5        30.10F
EAGLE          MOSUNNY   48  14  25 CALM      30.06F
RIFLE          FAIR      55  17  22 NE10      30.05F
DELTA          FAIR      60  18  19 SW10G16   30.06F
NUCLA          FAIR      55  14  19 W12       30.11S
$$

COZ017>023-064>068-302100-
...SOUTHWEST COLORADO...

CITY           SKY/WX    TMP DP  RH WIND       PRES   REMARKS
DURANGO        FAIR      57  13  17 SW14G21   29.99F
CORTEZ         FAIR      58  16  19 NW17G24   30.06F
PAGOSA SPRINGS FAIR      51  17  26 SW14G20   30.00S
TELLURIDE      FAIR      38  15  38 W17G23    30.13S
WOLF CREEK PAS FAIR      32   3  29 CALM      30.14S
$$

COZ009-010-012-014-032>034-037-058>063-302100-
...CENTRAL COLORADO...

CITY           SKY/WX    TMP DP  RH WIND       PRES   REMARKS
ASPEN          FAIR      45  17  32 N15G22    30.05F
BUENA VISTA    FAIR      48  10  21 N30G41    29.95F
COPPER MTN     PTSUNNY   27  14  59 NW17G29   30.07S HAZE    WCI  14
BERTHOUD PASS  SNOW      16   5  62 NW26G43   30.03R VSB 1/4 WCI  -3
COTTONWOOD PAS FAIR      41   9  26 NW14G22   29.98F
GUNNISON       FAIR      48   8  19 N13G23    30.03F
KREMMLING      FAIR      52  19  28 NW9G16    30.06F
LEADVILLE      FAIR      35  13  40 N10G28    30.03F WCI  27
MONARCH PASS   FAIR      27  12  54 NW17G32   30.17S WCI  14
SALIDA         FAIR      53   8  16 N14G26    30.01F
SUNLIGHT       FAIR      28  14  54 NW8       30.18S WCI  20
WILKERSON PASS FAIR      32  14  47 N7G25     30.01S WCI  26
$$

COZ069>075-302100-
...SAN LUIS VALLEY/SANGRE DE CRISTO MOUNTAINS...

CITY           SKY/WX    TMP DP  RH WIND       PRES   REMARKS
ALAMOSA        FAIR      54   8  16 N14G30    29.94F
LA VETA PASS   FAIR      39  19  45 W5G16     30.08S
SAGUACHE       FAIR      52   5  15 N24G35    29.95S
$$

COZ035-036-038>040-302100-
...NORTHERN COLORADO FRONT RANGE...

CITY           SKY/WX    TMP DP  RH WIND       PRES   REMARKS
DENVER INTL AP FAIR      56  23  27 N31G41    29.87F
DMNS CITY PARK   N/A     52  20  29 N5G12     29.89F
AURORA         MOSUNNY   50  25  37 N17       29.89F
FRONT RANGE AP NOT AVBL
ERIE MUNI ARPT FAIR      56  20  24 NW5       29.88F
BOULDER MUN AP FAIR      52  23  32 W3        29.88F
CENTENNIAL     FAIR      45  22  40 W8        29.90F
BROOMFIELD     MOSUNNY   50  23  34 CALM      29.90F
FORT COLLINS   FAIR      58  24  27 NW22G37   29.87F
LONGMONT       FAIR      60  22  23 NW3       29.89F
$$

COZ041-046-047-076>085-087-088-302100-
...PIKES PEAK/PALMER DIVIDE AND SOUTHERN FOOTHILLS...

CITY           SKY/WX    TMP DP  RH WIND       PRES   REMARKS
COLO. SPRINGS  FAIR      51  15  23 N32G43    29.89F
A. F. ACADEMY  FAIR      44  20  38 N23G35    29.88F
SCHRIEVER AFB  FAIR      45  22  40 N24G39    29.89F
ELLICOTT       FAIR     N/A N/A N/A N28G40    29.87F
FALCON         FAIR      44  19  37 N23G32    29.90F
FORT CARSON    FAIR      51  19  28 N20G30    29.87F
LIMON          FAIR      50  24  36 N37G48    29.84F
MONUMENT HILL  FAIR      36  23  60 N16       29.92F
TRINIDAD       FAIR      42  22  44 NW20      29.93F
$$

COZ042>045-048>051-090-091-302100-
...NORTHEAST COLORADO...

CITY           SKY/WX    TMP DP  RH WIND       PRES   REMARKS
GREELEY ARPT   FAIR      61  18  18 N29G38    29.85F
AKRON          FAIR      51  17  26 N26G45    29.83F
BURLINGTON     NOT AVBL
WRAY           NOT AVBL
STERLING       FAIR      55  21  26 N29G36    29.83F
HOLYOKE        FAIR      54  23  30 N28G41    29.81F
FORT MORGAN    FAIR      56  19  22 N32G39    29.87F
$$

COZ086-089-092>099-302100-
...SOUTHEAST COLORADO...

CITY           SKY/WX    TMP DP  RH WIND       PRES   REMARKS
PUEBLO         FAIR      54  29  38 N20G32    29.88F
LA JUNTA       FAIR      50  29  44 N36G45    29.87F
LAMAR          FAIR      50  27  40 N25G40    29.76F
SPRINGFIELD      N/A     37  29  72 NW28      29.77R
$$



USA.gov is the U.S. government's official web portal to all federal, state and local government web resources and services.